#timestamp,LO_Frequency,Hit,Temp,Hum 
1479895215.3,286047040.7,N,0.0,0.0
1479895235.1,286047040.4,N,0.0,0.0
1479895236.0,286047040.4,N,0.0,0.0
1479895255.8,286047040.2,N,0.0,0.0
1479895275.7,286047042.6,N,0.0,0.0
1479895295.5,286047042.0,N,0.0,0.0
1479895315.4,286047041.6,N,0.0,0.0
1479895335.2,286047044.0,N,0.0,0.0
1479895355.0,286047043.5,N,0.0,0.0
1479895355.9,286047043.5,N,0.0,0.0
1479895375.8,286047043.4,N,0.0,0.0
1479895395.6,286047043.0,N,0.0,0.0
1479895415.4,286047045.2,N,0.0,0.0
1479895435.3,286047045.0,N,0.0,0.0
1479895455.1,286047045.2,N,0.0,0.0
1479895475.9,286047045.3,N,0.0,0.0
1479895495.7,286047045.8,N,0.0,0.0
1479895515.5,286047044.5,N,0.0,0.0
1479895535.4,286047044.9,N,0.0,0.0
1479895555.2,286047044.8,N,0.0,0.0
1479895575.0,286047044.9,N,0.0,0.0
1479895575.9,286047044.9,N,0.0,0.0
1479895595.8,286047047.2,N,0.0,0.0
1479895615.6,286047046.4,N,0.0,0.0
1479895635.5,286047046.8,N,0.0,0.0
1479895655.3,286047046.8,N,0.0,0.0
1479895675.1,286047049.2,N,0.0,0.0
1479895695.9,286047048.9,N,0.0,0.0
1479895715.7,286047048.3,N,0.0,0.0
1479895735.5,286047048.3,N,0.0,0.0
1479895755.4,286047048.8,N,0.0,0.0
1479895775.2,286047048.9,N,0.0,0.0
1479895795.1,286047048.9,N,0.0,0.0
1479895796.0,286047048.9,N,0.0,0.0
1479895815.8,286047048.7,N,0.0,0.0
1479895835.6,286047049.1,N,0.0,0.0
1479895855.5,286047049.1,N,0.0,0.0
1479895875.3,286047049.0,N,0.0,0.0
1479895895.2,286047049.2,N,0.0,0.0
1479895915.9,286047049.1,N,0.0,0.0
1479895935.7,286047049.1,N,0.0,0.0
1479895955.6,286047049.2,N,0.0,0.0
1479895975.4,286047049.0,N,0.0,0.0
1479895995.2,286047048.2,N,0.0,0.0
1479896015.1,286047049.9,N,0.0,0.0
1479896016.0,286047049.9,N,0.0,0.0
1479896035.8,286047049.6,N,0.0,0.0
1479896055.7,286047049.9,N,0.0,0.0
1479896075.5,286047049.7,N,0.0,0.0
1479896095.3,286047049.4,N,0.0,0.0
1479896115.2,286047049.5,N,0.0,0.0
1479896135.0,286047049.6,N,0.0,0.0
1479896135.9,286047049.6,N,0.0,0.0
1479896155.8,286047052.4,N,0.0,0.0
1479896175.6,286047051.9,N,0.0,0.0
1479896195.4,286047051.3,N,0.0,0.0
1479896215.3,286047051.3,N,0.0,0.0
1479896235.1,286047053.8,N,0.0,0.0
1479896255.8,286047051.0,N,0.0,0.0
1479896275.7,286047053.2,N,0.0,0.0
1479896295.5,286047053.1,N,0.0,0.0
1479896315.4,286047053.7,N,0.0,0.0
1479896335.2,286047053.7,N,0.0,0.0
1479896355.0,286047053.4,N,0.0,0.0
1479896355.9,286047053.4,N,0.0,0.0
1479896375.8,286047052.9,N,0.0,0.0
1479896395.6,286047055.4,N,0.0,0.0
1479896415.4,286047054.8,N,0.0,0.0
1479896435.3,286047054.9,N,0.0,0.0
1479896455.1,286047054.3,N,0.0,0.0
1479896475.9,286047057.1,N,0.0,0.0
1479896495.7,286047057.2,N,0.0,0.0
1479896515.5,286047054.1,N,0.0,0.0
1479896535.4,286047056.8,N,0.0,0.0
1479896555.2,286047056.7,N,0.0,0.0
1479896575.0,286047055.9,N,0.0,0.0
1479896576.0,286047055.9,N,0.0,0.0
1479896595.8,286047055.9,N,0.0,0.0
1479896615.6,286047055.8,N,0.0,0.0
1479896635.5,286047058.1,N,0.0,0.0
1479896655.3,286047058.0,N,0.0,0.0
1479896675.1,286047057.8,N,0.0,0.0
1479896695.9,286047060.3,N,0.0,0.0
1479896715.7,286047060.2,N,0.0,0.0
1479896735.6,286047059.5,N,0.0,0.0
1479896755.4,286047059.2,N,0.0,0.0
1479896775.2,286047059.3,N,0.0,0.0
1479896795.1,286047059.3,N,0.0,0.0
1479896796.0,286047059.3,N,0.0,0.0
1479896815.8,286047059.4,N,0.0,0.0
1479896835.7,286047059.4,N,0.0,0.0
1479896855.5,286047061.3,N,0.0,0.0
1479896875.3,286047060.6,N,0.0,0.0
1479896895.2,286047062.1,N,0.0,0.0
1479896915.0,286047065.2,N,0.0,0.0
1479896915.9,286047065.2,N,0.0,0.0
1479896935.7,286047062.3,N,0.0,0.0
1479896955.6,286047063.0,N,0.0,0.0
1479896975.4,286047063.1,N,0.0,0.0
1479896995.3,286047060.9,N,0.0,0.0
1479897015.1,286047061.2,N,0.0,0.0
1479897035.8,286047061.2,N,0.0,0.0
1479897055.7,286047063.6,N,0.0,0.0
1479897075.5,286047063.2,N,0.0,0.0
1479897095.4,286047063.4,N,0.0,0.0
1479897115.2,286047062.4,N,0.0,0.0
1479897135.0,286047062.1,N,0.0,0.0
1479897135.9,286047062.1,N,0.0,0.0
1479897155.8,286047062.2,N,0.0,0.0
1479897175.6,286047064.6,N,0.0,0.0
1479897195.4,286047062.2,N,0.0,0.0
1479897215.3,286047062.5,N,0.0,0.0
1479897235.1,286047062.2,N,0.0,0.0
1479897255.9,286047065.2,N,0.0,0.0
1479897275.7,286047065.0,N,0.0,0.0
1479897295.5,286047064.9,N,0.0,0.0
1479897315.4,286047064.6,N,0.0,0.0
1479897335.2,286047065.0,N,0.0,0.0
1479897355.0,286047064.2,N,0.0,0.0
1479897356.0,286047064.2,N,0.0,0.0
1479897375.8,286047063.8,N,0.0,0.0
1479897395.6,286047064.2,N,0.0,0.0
1479897415.5,286047064.1,N,0.0,0.0
1479897435.3,286047065.6,N,0.0,0.0
1479897455.1,286047065.5,N,0.0,0.0
1479897475.9,286047065.6,N,0.0,0.0
1479897495.7,286047066.2,N,0.0,0.0
1479897515.6,286047065.6,N,0.0,0.0
1479897535.4,286047068.4,N,0.0,0.0
1479897555.2,286047067.9,N,0.0,0.0
1479897575.1,286047065.5,N,0.0,0.0
1479897576.0,286047065.5,N,0.0,0.0
1479897595.8,286047065.7,N,0.0,0.0
1479897615.7,286047065.9,N,0.0,0.0
1479897635.5,286047066.1,N,0.0,0.0
1479897655.3,286047065.6,N,0.0,0.0
1479897675.2,286047065.9,N,0.0,0.0
1479897695.0,286047065.5,N,0.0,0.0
1479897695.9,286047065.5,N,0.0,0.0
1479897715.7,286047068.4,N,0.0,0.0
1479897735.6,286047065.6,N,0.0,0.0
1479897755.4,286047066.1,N,0.0,0.0
1479897775.3,286047065.7,N,0.0,0.0
1479897795.1,286047068.3,N,0.0,0.0
1479897796.0,286047068.3,N,0.0,0.0
1479897815.8,286047066.1,N,0.0,0.0
1479897835.7,286047066.5,N,0.0,0.0
1479897855.5,286047066.0,N,0.0,0.0
1479897875.4,286047065.7,N,0.0,0.0
1479897895.2,286047065.7,N,0.0,0.0
1479897915.0,286047068.3,N,0.0,0.0
1479897915.9,286047068.3,N,0.0,0.0
1479897935.8,286047067.6,N,0.0,0.0
1479897955.6,286047067.4,N,0.0,0.0
1479897975.4,286047067.3,N,0.0,0.0
1479897995.3,286047067.3,N,0.0,0.0
1479898015.1,286047067.1,N,0.0,0.0
1479898035.9,286047067.1,N,0.0,0.0
1479898055.7,286047067.3,N,0.0,0.0
1479898075.5,286047069.9,N,0.0,0.0
1479898095.4,286047069.5,N,0.0,0.0
1479898115.2,286047069.4,N,0.0,0.0
1479898135.0,286047069.4,N,0.0,0.0
1479898136.0,286047069.4,N,0.0,0.0
1479898155.8,286047068.7,N,0.0,0.0
1479898175.6,286047068.9,N,0.0,0.0
1479898195.5,286047069.0,N,0.0,0.0
1479898215.3,286047070.9,N,0.0,0.0
1479898235.1,286047070.5,N,0.0,0.0
1479898255.9,286047071.9,N,0.0,0.0
1479898275.7,286047070.3,N,0.0,0.0
1479898295.6,286047073.0,N,0.0,0.0
1479898315.4,286047072.6,N,0.0,0.0
1479898335.2,286047072.5,N,0.0,0.0
1479898355.1,286047071.8,N,0.0,0.0
1479898356.0,286047071.8,N,0.0,0.0
1479898375.8,286047073.3,N,0.0,0.0
1479898395.6,286047076.4,N,0.0,0.0
1479898415.5,286047075.9,N,0.0,0.0
1479898435.3,286047076.3,N,0.0,0.0
1479898455.2,286047076.0,N,0.0,0.0
1479898475.9,286047075.5,N,0.0,0.0
1479898495.7,286047077.6,N,0.0,0.0
1479898515.6,286047076.1,N,0.0,0.0
1479898535.4,286047074.0,N,0.0,0.0
1479898555.2,286047074.2,N,0.0,0.0
1479898575.1,286047074.3,N,0.0,0.0
1479898576.0,286047074.3,N,0.0,0.0
1479898595.8,286047073.5,N,0.0,0.0
1479898615.7,286047075.5,N,0.0,0.0
1479898635.5,286047077.6,N,0.0,0.0
1479898655.3,286047073.4,N,0.0,0.0
1479898675.2,286047074.2,N,0.0,0.0
1479898695.0,286047073.9,N,0.0,0.0
1479898695.9,286047073.9,N,0.0,0.0
1479898715.8,286047071.7,N,0.0,0.0
1479898735.6,286047073.6,N,0.0,0.0
1479898755.4,286047076.3,N,0.0,0.0
1479898775.3,286047076.0,N,0.0,0.0
1479898795.1,286047075.9,N,0.0,0.0
